Weather History for KCNK - May, 2013

Change the Weather History Date:

Wednesday, May 15, 2013

  Actual Average Record
Temperature  
Mean Temperature 73 °F 63 °F  
Max Temperature 87 °F 74 °F 91 °F (2012)
Min Temperature 59 °F 52 °F 26 °F (1907)
Degree Days  
Heating Degree Days 0 4  
Month to date heating degree days 139 87  
Since 1 July heating degree days 5486 5351  
Cooling Degree Days 8 2  
Month to date cooling degree days 20 20  
Year to date cooling degree days 30 37  
Growing Degree Days 23 (Base 50)    
Moisture  
Dew Point 56 °F    
Average Humidity 57    
Maximum Humidity 78    
Minimum Humidity 35    
Precipitation  
Precipitation 0.00 in 0.13 in 1.78 in (1943)
Month to date precipitation 3.09 1.87  
Year to date precipitation 8.94 7.70  
Snow  
Snow 0.00 in 0.00 in T in (1990)
Month to date snowfall T 0.0  
Year to date snowfall 20.3 13.7  
Since 1 July snowfall 28.8 20.2  
Snow Depth 0.00 in    
Sea Level Pressure  
Sea Level Pressure 29.77 in    
Wind  
Wind Speed 9 mph (South)    
Max Wind Speed 20 mph    
Max Gust Speed 24 mph    
Visibility 10 miles    
Events      
T = Trace of Precipitation, MM = Missing Value Source: NWS Daily Summary

Daily Weather History Graph

Daily Weather History Graph

Search for Another Location

Airport or City:

Trip Planner

Search our weather history database for the weather conditions in past years. The results will help you decide how hot, cold, wet, or windy it might be!

Date:

Astronomy

May. 15, 2013 Rise Set
Actual Time 6:16 AM CDT 8:38 PM CDT
Civil Twilight 5:45 AM CDT 9:08 PM CDT
Nautical Twilight 5:08 AM CDT 9:46 PM CDT
Astronomical Twilight 4:26 AM CDT 10:28 PM CDT
Moon 10:52 AM CDT (5/15) 12:25 AM CDT (5/15)
Length of Visible Light 15h 22m
Length of Day
14h 22m
Waxing Crescent, 27% of the Moon is Illuminated
May 15
Waxing Crescent
May 17
First Quarter
May 24
Full
May 31
Last Quarter
Jun 8
New

Hourly Weather History & Observations

Time (CDT) Temp. Heat Index Dew Point Humidity Pressure Visibility Wind Dir Wind Speed Gust Speed Precip Events Conditions
12:55 AM 71.1 °F - 53.1 °F 53% 29.74 in 10.0 mi SSW 17.3 mph - N/A   Clear
1:55 AM 70.0 °F - 53.1 °F 55% 29.75 in 10.0 mi SSW 16.1 mph - N/A   Clear
2:55 AM 70.0 °F - 52.0 °F 53% 29.74 in 10.0 mi SSW 17.3 mph - N/A   Clear
3:55 AM 68.0 °F - 53.1 °F 59% 29.76 in 10.0 mi Calm Calm - N/A   Clear
4:55 AM 64.0 °F - 53.1 °F 67% 29.76 in 10.0 mi SSW 4.6 mph - N/A   Clear
5:55 AM 59.0 °F - 52.0 °F 78% 29.77 in 10.0 mi SSE 3.5 mph - N/A   Clear
6:55 AM 60.1 °F - 53.1 °F 78% 29.79 in 10.0 mi South 4.6 mph - N/A   Clear
7:55 AM 66.9 °F - 55.9 °F 68% 29.81 in 10.0 mi Calm Calm - N/A   Clear
8:55 AM 70.0 °F - 55.9 °F 61% 29.81 in 10.0 mi South 10.4 mph - N/A   Clear
9:55 AM 73.9 °F - 55.9 °F 53% 29.80 in 10.0 mi SSW 12.7 mph - N/A   Clear
10:55 AM 75.9 °F - 55.9 °F 50% 29.80 in 10.0 mi SSW 4.6 mph - N/A   Clear
11:55 AM 81.0 °F 81.0 °F 57.0 °F 44% 29.81 in 10.0 mi NE 3.5 mph - N/A   Clear
12:55 PM 82.0 °F 81.6 °F 55.9 °F 41% 29.79 in 10.0 mi East 9.2 mph - N/A   Clear
1:55 PM 82.9 °F 82.4 °F 57.0 °F 41% 29.78 in 10.0 mi ESE 10.4 mph - N/A   Clear
2:55 PM 86.0 °F 84.5 °F 55.0 °F 35% 29.76 in 10.0 mi South 9.2 mph - N/A   Clear
3:55 PM 87.1 °F 86.1 °F 57.9 °F 37% 29.75 in 10.0 mi SSE 10.4 mph 18.4 mph N/A   Clear
4:55 PM 84.9 °F 85.0 °F 61.0 °F 44% 29.74 in 10.0 mi SSE 13.8 mph 18.4 mph N/A   Clear
5:55 PM 84.0 °F 83.3 °F 57.0 °F 40% 29.75 in 10.0 mi South 12.7 mph - N/A   Clear
6:55 PM 82.0 °F 81.7 °F 57.0 °F 42% 29.75 in 10.0 mi South 9.2 mph - N/A   Clear
7:55 PM 77.0 °F - 61.0 °F 58% 29.75 in 10.0 mi South 12.7 mph - N/A   Clear
8:55 PM 72.0 °F - 62.1 °F 71% 29.77 in 10.0 mi South 12.7 mph - N/A   Clear
9:55 PM 69.1 °F - 61.0 °F 75% 29.78 in 10.0 mi South 10.4 mph - N/A   Clear
10:55 PM 68.0 °F - 61.0 °F 78% 29.81 in 10.0 mi South 12.7 mph - N/A   Clear
11:55 PM 66.0 °F - 59.0 °F 78% 29.81 in 10.0 mi South 11.5 mph - N/A   Clear